TURKSAT 6A

Last updated on Thu Nov 21 2024 00:02:45 GMT+0000 (Coordinated Universal Time)

1 60233U 24127A 24324.69642966 .00000116 00000+0 00000+0 0 9999 2 60233 0.0333 293.8004 0004787 320.4511 105.7135 1.00268446 1265
UTC large
Height (km)
Speed (km/s)
/
Latitude / Longitude
Inclination (degrees)
Orbital Period (minutes)
Azimuth
Elevation
Range (km)
Doppler Factor

Next 0 passes for location: London (51.5072 / 0.1276)

Sorry there are no passes over London.